Temperature
15 14 14 14 14 14 15 15 15 15 15 15 15 15 15 15 15 15 15 15 15 15 15 15 15 15 15 15 15 15 15 15 15 15 15 15 15 15 15 15 15 15 15
15 14 14 14 14 14 14 15 15 15 15 14 15 15 15 15 15 15 14 14 14 14 14 14 15 15 15 14 14 14 15 15 14 14 14 14 15 15 15 15 15 15 15
15 14 14 14 14 14 14 14 14 14 14 14 14 14 14 14 14 14 14 14 14 14 14 14 14 14 14 14 14 14 14 14 14 14 14 14 14 14 14 15 15 15 15
14 14 14 14 14 14 14 14 14 14 14 14 14 14 14 14 14 14 14 14 14 14 14 14 14 14 14 14 14 14 14 14 14 14 14 14 14 14 14 14 14 14 14
14 14 14 14 14 14 14 14 14 14 14 14 14 14 14 14 14 14 14 14 14 14 14 14 14 14 14 14 14 14 14 14 14 14 14 14 14 14 14 14 14 14 14
14 14 14 14 14 14 14 14 14 14 14 14 14 14 14 14 14 14 14 14 14 14 14 14 14 14 14 14 14 14 14 14 14 14 13 13 13 13 13 14 14 14 14
14 13 13 13 13 13 13 13 14 13 13 13 13 13 14 14 14 14 14 14 14 14 14 14 14 14 14 14 14 14 14 14 14 13 13 13 13 13 13 13 13 14 14
13 13 13 13 13 13 13 13 13 13 13 13 13 13 13 13 13 14 14 14 14 14 14 13 13 14 13 13 13 13 13 13 13 13 13 13 13 13 13 13 13 13 13
13 13 13 13 13 13 13 13 13 13 13 13 13 13 13 13 13 13 13 13 13 13 13 13 13 13 13 13 13 13 13 13 13 13 13 13 13 13 13 13 13 13 13
12 12 12 13 13 13 13 13 13 13 13 13 13 13 13 13 13 13 13 13 13 13 13 13 13 13 13 13 13 13 13 13 13 13 13 13 13 13 13 13 13 13 13
12 12 12 12 12 12 12 12 12 12 12 12 12 12 12 12 12 13 13 13 13 13 13 13 13 13 13 13 13 13 13 13 13 13 12 12 12 12 12 12 12 13 13
12 12 12 12 12 12 12 12 12 12 12 12 12 12 12 12 12 12 12 12 12 12 12 12 12 12 12 12 12 12 12 12 12 12 12 12 12 12 12 12 12 12 12
12 12 12 12 12 12 12 12 12 12 12 12 12 12 12 12 12 12 12 12 12 12 12 12 12 12 12 12 12 12 12 12 12 12 12 12 12 12 12 12 12 12 12
11 11 11 11 11 11 11 11 11 11 11 11 11 11 11 11 12 12 12 11 11 12 11 11 11 11 11 12 12 11 12 12 12 12 12 12 12 12 12 12 12 12 12
11 11 11 11 11 11 11 11 11 11 11 11 11 11 11 11 11 11 11 11 11 11 11 11 11 11 11 11 11 11 11 11 11 11 11 11 11 11 11 11 11 11 11
10 10 10 10 10 10 10 10 10 10 10 10 10 11 11 11 11 11 11 11 11 11 11 11 11 11 11 11 11 11 11 11 11 11 11 11 11 11 11 11 11 11 11
9 9 10 10 10 10 10 10 10 10 10 10 10 10 10 10 10 10 10 10 10 10 10 10 10 10 10 10 10 10 10 10 10 10 10 10 10 10 10 10 10 10 10
9 9 9 9 9 9 9 9 9 9 10 10 10 10 10 10 10 10 10 10 10 10 10 10 10 10 10 10 10 10 10 10 10 10 10 10 10 10 10 10 10 10 10
9 9 9 9 9 9 9 9 9 9 9 9 9 9 9 9 9 9 9 9 9 9 9 9 9 10 10 10 10 10 10 10 10 9 9 9 9 9 9 9 9 9 10
8 8 8 8 8 8 8 8 8 9 9 9 9 9 9 9 9 9 9 9 9 9 9 9 9 9 9 9 9 9 9 9 9 9 9 9 9 9 9 9 9 9 9
7 7 7 7 8 7 8 8 8 8 8 8 8 8 8 8 8 9 8 9 9 9 9 9 9 9 9 9 9 8 8 8 8 8 8 8 8 8 8 8 8 9 9
7 7 7 7 7 7 7 7 7 7 7 7 7 7 8 8 8 8 8 8 8 8 8 8 8 8 8 8 8 8 8 7 8 8 8 8 8 8 8 8 8 8 8
6 6 6 6 6 6 6 6 6 6 6 6 7 7 7 7 7 7 8 8 8 8 8 8 8 8 8 8 8 8 8 7 7 7 7 8 8 7 7 7 8 8 8
5 5 5 5 5 5 5 5 5 5 6 6 6 6 6 6 7 7 7 7 7 7 7 7 7 7 7 7 7 7 7 7 7 7 7 7 7 7 7 7 7 7 7
4 4 5 5 5 5 5 5 5 5 5 5 5 5 6 6 6 6 6 6 7 7 7 7 7 7 7 7 7 7 7 7 7 7 7 7 7 7 7 7 7 7 7
3 4 4 4 4 4 4 4 4 4 4 5 5 5 5 6 6 6 6 6 6 6 6 6 6 6 6 7 7 7 7 7 7 7 6 6 6 6 6 6 6 6 6
Wind_Speed
3 4 7 7 8 8 8 9 8 8 8 8 9 9 9 9 9 9 9 9 10 10 10 11 11 11 12 12 13 14 14 14 14 15 15 14 15 15 15 15 14 14 15
4 6 8 8 8 8 8 8 8 8 7 8 8 8 8 8 8 8 8 9 9 10 10 11 11 11 12 12 13 13 14 14 14 14 14 13 14 14 14 14 13 13 15
5 7 8 8 8 8 8 8 8 7 7 7 7 7 7 7 7 7 7 8 9 9 10 10 11 12 12 12 12 12 12 12 12 12 12 11 12 13 13 13 13 14 14
6 6 7 8 8 8 7 7 7 7 7 7 6 7 7 7 7 7 6 7 8 9 10 10 11 11 11 11 11 11 11 11 11 11 10 9 9 11 12 12 13 13 14
5 5 6 8 8 7 7 6 6 6 6 6 6 6 7 7 7 7 7 8 8 9 9 9 10 10 10 10 10 10 10 10 10 10 9 8 8 9 11 12 12 13 13
4 5 5 6 6 7 6 6 5 5 5 5 5 5 6 6 6 6 6 7 8 8 8 8 9 9 9 10 9 9 10 10 10 9 8 8 7 8 10 11 12 12 12
4 4 5 6 6 6 5 5 4 4 4 4 4 5 5 5 5 5 6 7 7 7 8 8 8 8 8 9 9 10 10 10 9 8 7 6 6 7 9 10 11 11 11
4 4 5 5 6 5 5 4 4 3 3 3 4 4 4 4 5 5 5 6 6 7 7 7 7 8 8 8 9 9 9 9 8 7 6 6 5 6 7 8 9 10 11
4 5 5 5 5 4 4 4 3 3 2 3 3 3 4 4 4 4 4 5 6 6 6 7 7 7 7 8 8 9 9 9 8 6 5 4 5 6 6 8 9 9 10
4 4 4 5 4 4 3 3 3 3 3 2 3 3 4 4 4 4 4 5 5 6 6 6 6 6 7 8 8 8 8 8 7 5 4 3 5 5 6 7 8 8 9
3 3 3 4 4 3 3 3 2 3 3 3 3 3 4 4 4 3 3 4 5 5 6 6 6 6 7 7 8 8 7 7 6 5 4 3 4 5 6 6 7 8 8
0 1 2 3 3 3 3 3 3 3 3 3 3 4 4 5 5 4 4 3 5 5 5 6 6 6 6 7 7 7 7 6 5 4 4 4 5 5 6 6 6 7 7
1 1 2 2 2 3 3 3 3 3 3 3 3 4 4 5 5 4 4 3 4 5 5 5 6 6 6 6 6 6 6 6 5 4 4 4 5 5 5 6 6 6 7
1 1 2 2 2 2 2 2 2 2 2 2 2 3 4 3 3 3 3 3 3 4 4 4 5 5 6 6 6 6 6 5 4 4 4 4 4 5 5 5 6 6 5
1 1 1 2 2 2 2 1 2 1 1 1 2 3 3 3 2 2 2 3 3 3 4 4 4 4 4 5 5 5 4 4 4 4 4 4 4 4 4 5 5 4 4
1 2 1 0 2 2 2 2 1 1 1 1 1 2 2 3 3 2 2 2 2 3 3 4 4 3 3 3 3 4 4 4 4 4 4 4 4 4 3 3 3 3 3
2 1 1 0 2 2 2 1 1 0 1 1 1 1 2 3 3 3 2 1 1 2 3 3 4 4 3 3 3 3 3 4 4 4 4 4 4 4 4 3 3 3 3
1 1 1 1 1 1 2 1 1 1 1 0 1 1 2 3 3 3 2 2 2 2 2 2 2 3 2 2 2 2 3 4 4 5 5 6 5 5 5 5 4 2 2
1 1 0 1 1 1 2 2 2 1 1 1 0 0 1 2 3 3 2 2 3 3 2 2 2 2 2 2 2 2 3 3 3 4 6 6 6 6 5 5 5 4 2
2 1 1 2 2 2 2 3 3 2 2 1 1 1 1 2 3 3 2 2 3 2 1 2 2 2 2 3 3 3 3 3 3 4 4 5 5 5 5 5 5 4 3
4 3 2 2 2 2 2 2 2 2 2 2 2 1 1 1 2 3 2 2 2 2 2 3 3 3 2 2 3 3 3 3 3 3 4 3 4 4 5 5 5 4 3
4 3 3 2 2 1 1 1 1 2 1 2 2 2 1 1 1 2 2 2 3 2 2 3 3 3 1 2 3 3 1 2 2 3 3 3 3 4 4 5 5 4 3
6 4 3 3 3 2 2 2 2 2 2 2 2 2 2 1 1 1 3 3 3 3 4 4 4 4 3 1 1 3 3 2 0 2 2 2 2 2 3 4 4 3 3
5 5 4 3 3 3 2 1 1 1 2 2 2 2 2 2 1 1 2 3 3 3 4 4 3 3 5 3 1 1 2 3 3 0 1 2 2 1 1 2 3 3 2
5 5 4 4 4 4 3 1 1 2 3 3 2 2 2 2 2 2 2 2 2 2 4 4 4 3 4 4 3 2 2 2 2 2 1 1 1 1 1 1 1 2 2
6 5 5 4 4 4 3 2 1 2 3 3 3 3 2 2 2 2 2 2 2 2 3 4 4 4 4 4 3 3 3 3 3 3 2 1 1 1 1 1 1 1 1
Wind_Direction
197 198 177 155 143 136 127 119 112 104 101 102 101 100 99 96 95 96 93 91 93 93 93 94 92 91 88 87 86 85 83 86 85 83 82 84 85 87 86 83 81 81 86
162 168 163 156 146 137 130 123 118 111 107 106 104 102 101 99 96 97 94 92 93 93 93 93 93 92 91 89 88 87 85 85 84 81 79 82 86 88 87 86 87 88 88
137 154 156 150 144 139 131 126 122 118 113 108 107 104 102 102 102 98 96 95 94 94 94 93 92 93 93 91 90 89 89 87 85 81 77 77 86 91 92 90 91 93 92
132 141 147 144 139 137 133 128 124 124 120 116 112 110 106 101 102 100 99 98 97 96 95 94 93 95 95 93 90 91 93 90 86 82 75 73 84 95 98 97 96 95 94
112 128 142 142 139 135 132 130 125 122 120 120 116 112 108 100 99 98 97 101 98 98 99 98 97 96 97 96 93 92 94 92 87 81 75 72 83 95 100 101 101 98 97
90 105 124 130 135 134 132 130 125 124 124 118 118 116 114 110 105 100 100 106 102 101 102 102 100 97 100 98 95 94 96 94 86 80 74 73 81 94 100 102 104 103 100
92 92 112 120 120 124 130 135 131 128 130 127 123 122 120 120 116 108 106 112 111 108 105 107 104 100 99 98 93 92 93 94 88 81 73 73 82 94 103 107 107 108 106
92 79 90 109 112 116 122 131 134 140 137 129 122 112 115 122 120 114 115 119 115 109 106 106 106 102 101 99 93 92 91 90 86 78 72 72 80 91 103 112 111 108 108
76 69 65 78 96 108 116 121 123 130 133 129 127 116 109 122 131 123 121 120 118 112 106 103 103 104 103 101 95 94 93 89 85 78 72 67 79 95 107 110 113 110 110
59 51 48 57 70 78 91 111 112 110 112 121 122 113 109 111 121 129 125 122 120 115 109 105 100 99 99 100 95 93 92 87 82 78 69 67 88 104 111 113 114 112 112
49 38 37 44 52 63 79 82 84 93 94 95 103 111 105 98 98 106 116 123 126 119 113 107 101 96 96 95 93 91 88 84 82 74 70 76 92 104 108 114 116 114 116
340 11 33 37 47 57 69 69 69 71 72 78 89 94 99 101 97 92 94 111 121 117 112 106 100 90 88 88 86 86 83 84 78 69 70 76 91 102 102 108 119 122 122
247 12 22 26 52 61 62 70 65 67 65 65 84 97 99 98 94 89 82 80 97 105 99 95 90 85 82 87 85 81 83 85 78 70 66 75 85 94 101 103 109 122 124
27 355 8 22 39 51 69 70 80 72 68 61 86 104 105 94 88 92 93 88 90 101 102 99 97 93 85 83 89 87 84 82 76 70 67 78 90 96 97 103 107 113 120
337 323 342 18 35 41 54 55 70 69 80 92 99 109 119 115 114 103 98 100 100 108 118 114 106 97 87 76 80 89 84 82 76 73 63 72 92 96 96 97 102 108 123
282 285 309 16 27 40 34 24 40 85 103 103 103 121 133 133 129 129 114 105 114 124 128 131 123 111 95 90 80 84 86 86 79 74 67 65 71 79 85 93 100 103 127
272 274 284 268 33 28 18 19 53 79 106 102 126 148 151 149 142 134 135 138 135 144 131 120 118 110 103 94 86 79 80 81 80 75 71 67 64 63 62 70 86 105 120
299 300 293 5 30 10 9 16 31 64 85 100 158 168 170 165 154 136 139 163 159 142 128 133 137 123 113 106 97 76 67 69 70 73 72 68 66 60 54 57 58 83 119
286 301 337 11 34 6 14 22 25 47 40 26 26 184 189 175 162 144 150 156 150 133 140 154 137 135 133 119 108 79 61 61 58 72 70 66 65 63 57 55 51 57 87
358 17 32 27 28 28 28 27 27 28 17 21 354 273 223 190 173 155 150 156 140 148 160 142 127 114 129 128 108 81 58 57 58 64 68 68 65 59 55 56 52 40 54
23 24 19 22 24 42 30 14 6 335 327 334 338 319 265 214 182 162 157 160 155 172 178 158 136 122 112 117 100 75 44 52 64 56 54 64 58 51 50 51 50 45 42
10 8 11 3 3 8 342 327 336 327 309 317 347 351 337 273 187 182 169 181 176 169 163 159 144 134 120 131 124 113 84 13 26 37 40 54 48 45 41 38 40 42 48
3 357 356 347 346 338 2 26 19 12 11 6 338 317 314 289 230 193 187 184 189 179 182 181 170 154 159 179 152 145 149 194 254 360 20 38 43 46 29 24 31 33 50
348 352 353 355 2 356 7 19 45 343 310 291 288 283 301 279 256 230 199 189 194 187 183 189 182 169 159 169 170 96 126 146 149 159 338 1 16 12 11 17 13 19 36
348 354 354 356 1 1 2 348 327 333 322 322 320 305 295 303 269 237 221 200 199 193 190 188 182 180 176 175 170 157 122 92 111 148 200 292 333 327 327 338 356 7 14
358 359 358 357 353 353 347 339 325 315 321 325 319 304 300 300 298 280 243 223 213 205 199 194 190 187 190 184 176 167 165 160 162 155 177 217 251 293 320 321 335 316 355
Height
1523 1525 1527 1528 1529 1530 1531 1532 1533 1534 1535 1535 1536 1537 1537 1537 1538 1538 1539 1540 1540 1541 1541 1542 1543 1543 1544 1544 1545 1545 1546 1546 1547 1548 1548 1549 1549 1550 1550 1551 1551 1552 1552
1523 1524 1526 1528 1529 1530 1531 1532 1533 1534 1535 1536 1536 1537 1537 1538 1538 1539 1540 1540 1541 1542 1542 1543 1543 1544 1545 1545 1546 1546 1547 1548 1548 1549 1549 1550 1551 1551 1552 1552 1553 1553 1554
1523 1524 1526 1528 1529 1530 1531 1532 1533 1534 1535 1536 1536 1537 1538 1538 1539 1539 1540 1541 1541 1542 1543 1543 1544 1545 1545 1546 1547 1547 1548 1549 1550 1550 1551 1551 1552 1553 1553 1554 1554 1555 1555
1523 1525 1526 1528 1529 1530 1531 1532 1533 1534 1535 1536 1536 1537 1538 1538 1539 1540 1540 1541 1542 1542 1543 1544 1545 1545 1546 1547 1547 1548 1549 1550 1551 1551 1552 1553 1553 1554 1554 1555 1555 1556 1556
1524 1525 1527 1528 1529 1530 1531 1532 1533 1534 1534 1535 1536 1537 1538 1538 1539 1540 1540 1541 1542 1543 1543 1544 1545 1546 1547 1547 1548 1549 1550 1551 1551 1552 1553 1554 1554 1555 1555 1556 1557 1557 1558
1524 1525 1526 1528 1529 1530 1531 1532 1533 1533 1534 1535 1536 1537 1537 1538 1539 1540 1540 1541 1542 1543 1543 1544 1545 1546 1547 1548 1549 1549 1550 1551 1552 1553 1554 1554 1555 1556 1556 1557 1558 1558 1559
1524 1525 1526 1527 1528 1529 1530 1531 1532 1533 1534 1535 1535 1536 1537 1538 1539 1539 1540 1541 1542 1543 1543 1544 1545 1546 1547 1548 1549 1550 1551 1551 1552 1553 1554 1555 1556 1557 1557 1558 1558 1559 1560
1524 1525 1526 1527 1528 1529 1530 1530 1531 1532 1533 1534 1535 1535 1536 1537 1538 1539 1540 1541 1541 1542 1543 1544 1545 1546 1547 1548 1549 1550 1551 1552 1552 1553 1554 1555 1556 1557 1558 1558 1559 1560 1560
1524 1525 1526 1527 1527 1528 1529 1530 1531 1531 1532 1533 1534 1535 1536 1537 1538 1539 1539 1540 1541 1542 1543 1544 1544 1545 1546 1547 1549 1550 1551 1552 1553 1554 1554 1555 1556 1557 1558 1559 1559 1560 1561
1524 1525 1525 1526 1527 1527 1528 1529 1530 1530 1531 1532 1533 1534 1535 1536 1537 1538 1539 1539 1540 1541 1542 1543 1544 1545 1546 1547 1548 1549 1550 1551 1552 1553 1554 1555 1556 1557 1558 1559 1559 1560 1561
1522 1523 1524 1525 1526 1526 1527 1528 1528 1529 1530 1531 1531 1532 1533 1534 1535 1536 1537 1538 1539 1540 1541 1542 1543 1544 1545 1546 1547 1549 1550 1551 1552 1553 1554 1555 1556 1557 1558 1558 1559 1560 1561
1520 1522 1522 1523 1524 1525 1526 1526 1527 1528 1528 1529 1530 1531 1532 1533 1534 1535 1536 1537 1538 1539 1540 1541 1542 1544 1545 1546 1547 1548 1549 1550 1551 1552 1554 1555 1555 1556 1557 1558 1559 1560 1561
1520 1520 1521 1522 1523 1523 1524 1525 1525 1526 1527 1527 1528 1529 1530 1531 1532 1533 1534 1535 1537 1538 1539 1540 1541 1542 1544 1545 1546 1547 1548 1549 1550 1551 1553 1554 1555 1556 1557 1557 1558 1559 1560
1518 1519 1520 1520 1521 1521 1522 1523 1524 1524 1525 1526 1527 1527 1528 1529 1530 1531 1533 1534 1535 1536 1537 1539 1540 1541 1542 1544 1545 1546 1547 1548 1550 1551 1552 1553 1554 1555 1556 1557 1558 1559 1560
1517 1518 1518 1519 1519 1520 1520 1521 1522 1522 1523 1524 1525 1526 1526 1527 1528 1529 1530 1532 1533 1534 1536 1537 1538 1540 1541 1542 1543 1545 1546 1547 1548 1549 1551 1552 1553 1554 1555 1556 1556 1558 1559
1515 1516 1516 1517 1517 1518 1518 1519 1519 1520 1521 1522 1523 1524 1525 1525 1526 1527 1528 1530 1531 1532 1534 1535 1536 1538 1539 1540 1542 1543 1544 1546 1547 1548 1549 1550 1551 1552 1553 1554 1555 1556 1557
1513 1514 1514 1515 1515 1516 1516 1517 1517 1518 1519 1520 1521 1522 1523 1523 1524 1525 1526 1527 1529 1530 1532 1533 1534 1536 1537 1538 1540 1541 1542 1544 1545 1546 1548 1549 1550 1551 1552 1552 1553 1554 1555
1512 1512 1512 1513 1513 1514 1514 1515 1515 1516 1517 1518 1519 1519 1520 1521 1522 1523 1524 1525 1527 1528 1529 1531 1532 1533 1535 1536 1538 1539 1540 1542 1543 1544 1546 1547 1548 1549 1550 1550 1551 1552 1553
1509 1510 1510 1510 1511 1511 1512 1512 1513 1514 1515 1515 1516 1517 1518 1519 1519 1520 1521 1522 1524 1525 1527 1528 1530 1531 1533 1534 1536 1537 1538 1539 1541 1542 1544 1545 1546 1547 1548 1549 1549 1550 1551
1507 1507 1508 1508 1508 1509 1509 1510 1510 1511 1512 1513 1513 1514 1515 1516 1517 1518 1519 1520 1521 1523 1524 1526 1527 1529 1530 1532 1534 1535 1536 1537 1539 1540 1542 1543 1544 1545 1546 1547 1547 1548 1549
1505 1505 1505 1505 1506 1506 1506 1506 1507 1507 1508 1509 1510 1511 1512 1513 1514 1515 1516 1517 1518 1520 1521 1523 1525 1526 1528 1530 1532 1533 1534 1535 1537 1538 1539 1540 1542 1543 1544 1545 1545 1546 1547
1503 1503 1503 1503 1503 1503 1504 1505 1505 1506 1506 1507 1508 1508 1509 1510 1511 1512 1513 1514 1515 1517 1518 1520 1522 1523 1525 1527 1529 1530 1532 1534 1534 1536 1537 1538 1540 1541 1542 1543 1543 1544 1545
1502 1501 1501 1502 1502 1502 1502 1502 1503 1503 1504 1504 1505 1505 1506 1507 1508 1509 1510 1511 1512 1514 1515 1517 1519 1520 1522 1524 1526 1528 1529 1530 1531 1533 1534 1536 1537 1538 1539 1540 1541 1542 1543
1501 1501 1500 1500 1500 1500 1500 1500 1500 1500 1501 1501 1502 1503 1504 1504 1505 1506 1507 1508 1509 1510 1512 1514 1516 1517 1519 1521 1523 1525 1527 1527 1529 1530 1532 1533 1534 1535 1537 1538 1539 1540 1540
1501 1500 1499 1498 1498 1498 1498 1498 1498 1498 1499 1499 1500 1500 1501 1501 1502 1503 1504 1505 1506 1507 1509 1510 1512 1514 1516 1518 1519 1521 1523 1525 1526 1527 1528 1530 1531 1533 1534 1535 1536 1537 1538
1500 1499 1498 1497 1496 1496 1496 1496 1496 1496 1496 1496 1496 1496 1497 1498 1498 1499 1500 1501 1503 1504 1505 1507 1508 1510 1512 1514 1516 1517 1519 1520 1522 1524 1525 1526 1527 1529 1531 1532 1533 1534 1535